owner,sensor,date,latitude,longitude,vertical_datum,direction_of_sea_water_velocity,sea_water_speed,upward_sea_water_velocity,qcFlag 
ADCP,ioos:station:wmo:42890:1,2010-04-01T00:06:00Z,27.6250,-90.4410,15.2,169.0,5.7,-9999.0,'11133222,11111222,99999999' 
ADCP,ioos:station:wmo:42890:1,2010-04-01T00:26:00Z,27.6250,-90.4410,15.2,171.0,4.5,-9999.0,'11133222,11111222,99999999' 
ADCP,ioos:station:wmo:42890:1,2010-04-01T00:46:00Z,27.6250,-90.4410,15.2,239.0,2.6,-9999.0,'11133222,11111222,99999999' 
ADCP,ioos:station:wmo:42890:1,2010-04-01T01:06:00Z,27.6250,-90.4410,15.2,272.0,3.2,-9999.0,'11133222,11111222,99999999' 
ADCP,ioos:station:wmo:42890:1,2010-04-01T01:26:00Z,27.6250,-90.4410,15.2,231.0,2.7,-9999.0,'11133222,11111222,99999999' 
ADCP,ioos:station:wmo:42890:1,2010-04-01T01:46:00Z,27.6250,-90.4410,15.2,171.0,7.0,-9999.0,'11133222,11111222,99999999' 
ADCP,ioos:station:wmo:42890:1,2010-04-01T02:06:00Z,27.6250,-90.4410,15.2,156.0,4.7,-9999.0,'11133222,11111222,99999999' 
ADCP,ioos:station:wmo:42890:1,2010-04-01T02:26:00Z,27.6250,-90.4410,15.2,155.0,3.8,-9999.0,'11133222,11111222,99999999' 
ADCP,ioos:station:wmo:42890:1,2010-04-01T02:46:00Z,27.6250,-90.4410,15.2,183.0,6.2,-9999.0,'11133222,11111222,99999999' 
ADCP,ioos:station:wmo:42890:1,2010-04-01T03:06:00Z,27.6250,-90.4410,15.2,356.0,3.0,-9999.0,'11133222,11111222,99999999' 
ADCP,ioos:station:wmo:42890:1,2010-04-01T03:26:00Z,27.6250,-90.4410,15.2,348.0,8.0,-9999.0,'11133222,11111222,99999999' 
ADCP,ioos:station:wmo:42890:1,2010-04-01T03:46:00Z,27.6250,-90.4410,15.2,1.0,5.8,-9999.0,'11133222,11111222,99999999' 
ADCP,ioos:station:wmo:42890:1,2010-04-01T04:06:00Z,27.6250,-90.4410,15.2,333.0,12.1,-9999.0,'11111222,11111222,99999999' 
ADCP,ioos:station:wmo:42890:1,2010-04-01T04:26:00Z,27.6250,-90.4410,15.2,320.0,16.2,-9999.0,'11111222,11111222,99999999' 
ADCP,ioos:station:wmo:42890:1,2010-04-01T04:46:00Z,27.6250,-90.4410,15.2,315.0,12.2,-9999.0,'11111222,11111222,99999999' 
ADCP,ioos:station:wmo:42890:1,2010-04-01T05:06:00Z,27.6250,-90.4410,15.2,316.0,5.5,-9999.0,'11133222,11111222,99999999' 
ADCP,ioos:station:wmo:42890:1,2010-04-01T05:26:00Z,27.6250,-90.4410,15.2,302.0,9.2,-9999.0,'11133222,11111222,99999999' 
ADCP,ioos:station:wmo:42890:1,2010-04-01T05:46:00Z,27.6250,-90.4410,15.2,329.0,6.1,-9999.0,'11133222,11111222,99999999' 
ADCP,ioos:station:wmo:42890:1,2010-04-01T06:06:00Z,27.6250,-90.4410,15.2,313.0,5.4,-9999.0,'11133222,11111222,99999999' 
ADCP,ioos:station:wmo:42890:1,2010-04-01T06:26:00Z,27.6250,-90.4410,15.2,337.0,5.0,-9999.0,'11133222,11111222,99999999' 
ADCP,ioos:station:wmo:42890:1,2010-04-01T06:46:00Z,27.6250,-90.4410,15.2,335.0,11.9,-9999.0,'11111222,11111222,99999999' 
ADCP,ioos:station:wmo:42890:1,2010-04-01T07:06:00Z,27.6250,-90.4410,15.2,351.0,13.4,-9999.0,'11111222,11111222,99999999' 
ADCP,ioos:station:wmo:42890:1,2010-04-01T07:26:00Z,27.6250,-90.4410,15.2,352.0,16.3,-9999.0,'11111222,11111222,99999999' 
ADCP,ioos:station:wmo:42890:1,2010-04-01T07:46:00Z,27.6250,-90.4410,15.2,347.0,17.0,-9999.0,'11111222,11111222,99999999' 
ADCP,ioos:station:wmo:42890:1,2010-04-01T08:06:00Z,27.6250,-90.4410,15.2,353.0,17.8,-9999.0,'11111222,11111222,99999999' 
ADCP,ioos:station:wmo:42890:1,2010-04-01T08:26:00Z,27.6250,-90.4410,15.2,1.0,19.6,-9999.0,'11111222,11111222,99999999' 
ADCP,ioos:station:wmo:42890:1,2010-04-01T08:46:00Z,27.6250,-90.4410,15.2,6.0,19.7,-9999.0,'11111222,11111222,99999999' 
ADCP,ioos:station:wmo:42890:1,2010-04-01T09:06:00Z,27.6250,-90.4410,15.2,48.0,17.0,-9999.0,'11111222,11111222,99999999' 
ADCP,ioos:station:wmo:42890:1,2010-04-01T09:26:00Z,27.6250,-90.4410,15.2,63.0,17.9,-9999.0,'11111222,11111222,99999999' 
ADCP,ioos:station:wmo:42890:1,2010-04-01T09:46:00Z,27.6250,-90.4410,15.2,70.0,17.3,-9999.0,'11111222,11111222,99999999' 
ADCP,ioos:station:wmo:42890:1,2010-04-01T10:06:00Z,27.6250,-90.4410,15.2,69.0,18.3,-9999.0,'11111222,11111222,99999999' 
ADCP,ioos:station:wmo:42890:1,2010-04-01T10:26:00Z,27.6250,-90.4410,15.2,83.0,17.2,-9999.0,'11111222,11111222,99999999' 
ADCP,ioos:station:wmo:42890:1,2010-04-01T10:46:00Z,27.6250,-90.4410,15.2,84.0,18.3,-9999.0,'11111222,11111222,99999999' 
ADCP,ioos:station:wmo:42890:1,2010-04-01T11:06:00Z,27.6250,-90.4410,15.2,48.0,20.0,-9999.0,'11111222,11111222,99999999' 
ADCP,ioos:station:wmo:42890:1,2010-04-01T11:26:00Z,27.6250,-90.4410,15.2,40.0,16.6,-9999.0,'11111222,11111222,99999999' 
ADCP,ioos:station:wmo:42890:1,2010-04-01T11:46:00Z,27.6250,-90.4410,15.2,26.0,14.2,-9999.0,'11111222,11111222,99999999' 
ADCP,ioos:station:wmo:42890:1,2010-04-01T12:06:00Z,27.6250,-90.4410,15.2,64.0,20.3,-9999.0,'11111222,11111222,99999999' 
ADCP,ioos:station:wmo:42890:1,2010-04-01T12:26:00Z,27.6250,-90.4410,15.2,37.0,15.8,-9999.0,'11111222,11111222,99999999' 
ADCP,ioos:station:wmo:42890:1,2010-04-01T12:46:00Z,27.6250,-90.4410,15.2,28.0,14.1,-9999.0,'11111222,11111222,99999999' 
ADCP,ioos:station:wmo:42890:1,2010-04-01T13:06:00Z,27.6250,-90.4410,15.2,41.0,15.0,-9999.0,'11111222,11111222,99999999' 
ADCP,ioos:station:wmo:42890:1,2010-04-01T13:26:00Z,27.6250,-90.4410,15.2,55.0,18.9,-9999.0,'11111222,11111222,99999999' 
ADCP,ioos:station:wmo:42890:1,2010-04-01T13:46:00Z,27.6250,-90.4410,15.2,74.0,24.3,-9999.0,'11111222,11111222,99999999' 
ADCP,ioos:station:wmo:42890:1,2010-04-01T14:06:00Z,27.6250,-90.4410,15.2,76.0,27.3,-9999.0,'11111222,11111222,99999999' 
ADCP,ioos:station:wmo:42890:1,2010-04-01T14:26:00Z,27.6250,-90.4410,15.2,80.0,25.7,-9999.0,'11111222,11111222,99999999' 
ADCP,ioos:station:wmo:42890:1,2010-04-01T14:46:00Z,27.6250,-90.4410,15.2,72.0,18.2,-9999.0,'11111222,11111222,99999999' 
ADCP,ioos:station:wmo:42890:1,2010-04-01T15:06:00Z,27.6250,-90.4410,15.2,76.0,17.7,-9999.0,'11111222,11111222,99999999' 
ADCP,ioos:station:wmo:42890:1,2010-04-01T15:26:00Z,27.6250,-90.4410,15.2,80.0,18.6,-9999.0,'11111222,11111222,99999999' 
ADCP,ioos:station:wmo:42890:1,2010-04-01T15:46:00Z,27.6250,-90.4410,15.2,89.0,22.9,-9999.0,'11111222,11111222,99999999' 
ADCP,ioos:station:wmo:42890:1,2010-04-01T16:06:00Z,27.6250,-90.4410,15.2,89.0,19.7,-9999.0,'11111222,11111222,99999999' 
ADCP,ioos:station:wmo:42890:1,2010-04-05T05:46:00Z,27.6250,-90.4410,15.2,83.0,12.4,-9999.0,'11111222,11111222,99999999' 
ADCP,ioos:station:wmo:42890:1,2010-04-05T06:06:00Z,27.6250,-90.4410,15.2,83.0,12.8,-9999.0,'11111222,11111222,99999999' 
ADCP,ioos:station:wmo:42890:1,2010-04-05T06:26:00Z,27.6250,-90.4410,15.2,78.0,12.1,-9999.0,'11111222,11111222,99999999' 
ADCP,ioos:station:wmo:42890:1,2010-04-05T06:46:00Z,27.6250,-90.4410,15.2,70.0,11.3,-9999.0,'11111222,11111222,99999999' 
ADCP,ioos:station:wmo:42890:1,2010-04-05T07:06:00Z,27.6250,-90.4410,15.2,63.0,10.3,-9999.0,'11111222,11111222,99999999' 
ADCP,ioos:station:wmo:42890:1,2010-04-05T07:26:00Z,27.6250,-90.4410,15.2,64.0,13.3,-9999.0,'11111222,11111222,99999999' 
ADCP,ioos:station:wmo:42890:1,2010-04-05T07:46:00Z,27.6250,-90.4410,15.2,61.0,10.1,-9999.0,'11111222,11111222,99999999' 
ADCP,ioos:station:wmo:42890:1,2010-04-05T08:06:00Z,27.6250,-90.4410,15.2,57.0,11.2,-9999.0,'11111222,11111222,99999999' 
ADCP,ioos:station:wmo:42890:1,2010-04-05T08:26:00Z,27.6250,-90.4410,15.2,57.0,9.5,-9999.0,'11133222,11111222,99999999' 
ADCP,ioos:station:wmo:42890:1,2010-04-05T08:46:00Z,27.6250,-90.4410,15.2,65.0,8.6,-9999.0,'11133222,11111222,99999999' 
ADCP,ioos:station:wmo:42890:1,2010-04-05T09:06:00Z,27.6250,-90.4410,15.2,69.0,9.8,-9999.0,'11133222,11111222,99999999' 
ADCP,ioos:station:wmo:42890:1,2010-04-05T09:26:00Z,27.6250,-90.4410,15.2,67.0,12.0,-9999.0,'11111222,11111222,99999999' 
ADCP,ioos:station:wmo:42890:1,2010-04-05T09:46:00Z,27.6250,-90.4410,15.2,65.0,13.9,-9999.0,'11111222,11111222,99999999' 
ADCP,ioos:station:wmo:42890:1,2010-04-05T10:06:00Z,27.6250,-90.4410,15.2,69.0,15.4,-9999.0,'11111222,11111222,99999999' 
ADCP,ioos:station:wmo:42890:1,2010-04-05T10:26:00Z,27.6250,-90.4410,15.2,62.0,15.6,-9999.0,'11111222,11111222,99999999' 
ADCP,ioos:station:wmo:42890:1,2010-04-05T10:46:00Z,27.6250,-90.4410,15.2,64.0,13.4,-9999.0,'11111222,11111222,99999999' 
ADCP,ioos:station:wmo:42890:1,2010-04-05T11:06:00Z,27.6250,-90.4410,15.2,60.0,13.8,-9999.0,'11111222,11111222,99999999' 
ADCP,ioos:station:wmo:42890:1,2010-04-05T11:26:00Z,27.6250,-90.4410,15.2,68.0,18.3,-9999.0,'11111222,11111222,99999999' 
ADCP,ioos:station:wmo:42890:1,2010-04-05T11:46:00Z,27.6250,-90.4410,15.2,55.0,16.0,-9999.0,'11111222,11111222,99999999' 
ADCP,ioos:station:wmo:42890:1,2010-04-05T12:06:00Z,27.6250,-90.4410,15.2,67.0,18.9,-9999.0,'11111222,11111222,99999999' 
ADCP,ioos:station:wmo:42890:1,2010-04-05T12:26:00Z,27.6250,-90.4410,15.2,67.0,17.0,-9999.0,'11111222,11111222,99999999' 
ADCP,ioos:station:wmo:42890:1,2010-04-05T12:46:00Z,27.6250,-90.4410,15.2,68.0,18.4,-9999.0,'11111222,11111222,99999999' 
ADCP,ioos:station:wmo:42890:1,2010-04-05T13:06:00Z,27.6250,-90.4410,15.2,48.0,13.9,-9999.0,'11111222,11111222,99999999' 
ADCP,ioos:station:wmo:42890:1,2010-04-05T13:26:00Z,27.6250,-90.4410,15.2,51.0,15.1,-9999.0,'11111222,11111222,99999999' 
ADCP,ioos:station:wmo:42890:1,2010-04-05T13:46:00Z,27.6250,-90.4410,15.2,64.0,16.9,-9999.0,'11111222,11111222,99999999' 
ADCP,ioos:station:wmo:42890:1,2010-04-05T14:06:00Z,27.6250,-90.4410,15.2,67.0,19.5,-9999.0,'11111222,11111222,99999999' 
ADCP,ioos:station:wmo:42890:1,2010-04-05T14:26:00Z,27.6250,-90.4410,15.2,66.0,18.9,-9999.0,'11111222,11111222,99999999' 
ADCP,ioos:station:wmo:42890:1,2010-04-05T14:46:00Z,27.6250,-90.4410,15.2,69.0,19.7,-9999.0,'11111222,11111222,99999999' 
ADCP,ioos:station:wmo:42890:1,2010-04-05T15:06:00Z,27.6250,-90.4410,15.2,67.0,17.7,-9999.0,'11111222,11111222,99999999' 
ADCP,ioos:station:wmo:42890:1,2010-04-05T15:26:00Z,27.6250,-90.4410,15.2,66.0,14.9,-9999.0,'11111222,11111222,99999999' 
ADCP,ioos:station:wmo:42890:1,2010-04-05T15:46:00Z,27.6250,-90.4410,15.2,65.0,15.4,-9999.0,'11111222,11111222,99999999' 
ADCP,ioos:station:wmo:42890:1,2010-04-05T16:06:00Z,27.6250,-90.4410,15.2,66.0,15.3,-9999.0,'11111222,11111222,99999999' 
ADCP,ioos:station:wmo:42890:1,2010-04-05T16:26:00Z,27.6250,-90.4410,15.2,68.0,14.5,-9999.0,'11111222,11111222,99999999' 
ADCP,ioos:station:wmo:42890:1,2010-04-05T16:46:00Z,27.6250,-90.4410,15.2,77.0,13.5,-9999.0,'11111222,11111222,99999999' 
ADCP,ioos:station:wmo:42890:1,2010-04-05T17:06:00Z,27.6250,-90.4410,15.2,77.0,19.5,-9999.0,'11111222,11111222,99999999' 
ADCP,ioos:station:wmo:42890:1,2010-04-05T17:26:00Z,27.6250,-90.4410,15.2,79.0,18.6,-9999.0,'11111222,11111222,99999999' 
ADCP,ioos:station:wmo:42890:1,2010-04-05T17:46:00Z,27.6250,-90.4410,15.2,82.0,19.2,-9999.0,'11111222,11111222,99999999' 
ADCP,ioos:station:wmo:42890:1,2010-04-05T18:06:00Z,27.6250,-90.4410,15.2,72.0,11.5,-9999.0,'11111222,11111222,99999999' 
ADCP,ioos:station:wmo:42890:1,2010-04-05T18:26:00Z,27.6250,-90.4410,15.2,73.0,12.2,-9999.0,'11111222,11111222,99999999' 
ADCP,ioos:station:wmo:42890:1,2010-04-05T18:46:00Z,27.6250,-90.4410,15.2,81.0,14.8,-9999.0,'11111222,11111222,99999999' 
ADCP,ioos:station:wmo:42890:1,2010-04-05T19:06:00Z,27.6250,-90.4410,15.2,85.0,20.7,-9999.0,'11111222,11111222,99999999' 
ADCP,ioos:station:wmo:42890:1,2010-04-05T19:26:00Z,27.6250,-90.4410,15.2,89.0,20.1,-9999.0,'11111222,11111222,99999999' 
ADCP,ioos:station:wmo:42890:1,2010-04-05T19:46:00Z,27.6250,-90.4410,15.2,93.0,21.0,-9999.0,'11111222,11111222,99999999' 
ADCP,ioos:station:wmo:42890:1,2010-04-05T20:06:00Z,27.6250,-90.4410,15.2,93.0,21.1,-9999.0,'11111222,11111222,99999999' 
ADCP,ioos:station:wmo:42890:1,2010-04-05T20:26:00Z,27.6250,-90.4410,15.2,93.0,20.3,-9999.0,'11111222,11111222,99999999' 
ADCP,ioos:station:wmo:42890:1,2010-04-05T20:46:00Z,27.6250,-90.4410,15.2,89.0,18.3,-9999.0,'11111222,11111222,99999999' 
ADCP,ioos:station:wmo:42890:1,2010-04-05T21:06:00Z,27.6250,-90.4410,15.2,91.0,16.2,-9999.0,'11111222,11111222,99999999' 
ADCP,ioos:station:wmo:42890:1,2010-04-05T21:26:00Z,27.6250,-90.4410,15.2,99.0,16.9,-9999.0,'11111222,11111222,99999999' 
ADCP,ioos:station:wmo:42890:1,2010-04-05T21:46:00Z,27.6250,-90.4410,15.2,103.0,13.9,-9999.0,'11111222,11111222,99999999' 
ADCP,ioos:station:wmo:42890:1,2010-04-05T22:06:00Z,27.6250,-90.4410,15.2,107.0,14.6,-9999.0,'11111222,11111222,99999999' 
ADCP,ioos:station:wmo:42890:1,2010-04-05T22:26:00Z,27.6250,-90.4410,15.2,104.0,13.6,-9999.0,'11111222,11111222,99999999' 
ADCP,ioos:station:wmo:42890:1,2010-04-05T22:46:00Z,27.6250,-90.4410,15.2,107.0,12.8,-9999.0,'11111222,11111222,99999999' 
ADCP,ioos:station:wmo:42890:1,2010-04-05T23:06:00Z,27.6250,-90.4410,15.2,98.0,14.6,-9999.0,'11111222,11111222,99999999' 
ADCP,ioos:station:wmo:42890:1,2010-04-05T23:26:00Z,27.6250,-90.4410,15.2,98.0,16.4,-9999.0,'11111222,11111222,99999999' 
ADCP,ioos:station:wmo:42890:1,2010-04-05T23:46:00Z,27.6250,-90.4410,15.2,96.0,15.0,-9999.0,'11111222,11111222,99999999' 
ADCP,ioos:station:wmo:42890:1,2010-04-06T00:06:00Z,27.6250,-90.4410,15.2,96.0,14.3,-9999.0,'11111222,11111222,99999999' 
ADCP,ioos:station:wmo:42890:1,2010-04-06T00:26:00Z,27.6250,-90.4410,15.2,91.0,12.3,-9999.0,'11111222,11111222,99999999' 
ADCP,ioos:station:wmo:42890:1,2010-04-06T00:46:00Z,27.6250,-90.4410,15.2,92.0,12.6,-9999.0,'11111222,11111222,99999999' 
ADCP,ioos:station:wmo:42890:1,2010-04-06T01:06:00Z,27.6250,-90.4410,15.2,96.0,12.6,-9999.0,'11111222,11111222,99999999' 
ADCP,ioos:station:wmo:42890:1,2010-04-06T01:26:00Z,27.6250,-90.4410,15.2,91.0,8.8,-9999.0,'11133222,11111222,99999999' 
ADCP,ioos:station:wmo:42890:1,2010-04-06T01:46:00Z,27.6250,-90.4410,15.2,90.0,9.4,-9999.0,'11133222,11111222,99999999' 
ADCP,ioos:station:wmo:42890:1,2010-04-06T02:06:00Z,27.6250,-90.4410,15.2,106.0,13.8,-9999.0,'11111222,11111222,99999999' 
ADCP,ioos:station:wmo:42890:1,2010-04-06T02:26:00Z,27.6250,-90.4410,15.2,102.0,18.2,-9999.0,'11111222,11111222,99999999' 
ADCP,ioos:station:wmo:42890:1,2010-04-06T02:46:00Z,27.6250,-90.4410,15.2,97.0,19.5,-9999.0,'11111222,11111222,99999999' 
ADCP,ioos:station:wmo:42890:1,2010-04-06T03:06:00Z,27.6250,-90.4410,15.2,97.0,17.6,-9999.0,'11111222,11111222,99999999' 
ADCP,ioos:station:wmo:42890:1,2010-04-06T03:26:00Z,27.6250,-90.4410,15.2,96.0,17.5,-9999.0,'11111222,11111222,99999999' 
ADCP,ioos:station:wmo:42890:1,2010-04-06T03:46:00Z,27.6250,-90.4410,15.2,97.0,18.3,-9999.0,'11111222,11111222,99999999' 
ADCP,ioos:station:wmo:42890:1,2010-04-06T04:06:00Z,27.6250,-90.4410,15.2,99.0,18.1,-9999.0,'11111222,11111222,99999999' 
ADCP,ioos:station:wmo:42890:1,2010-04-06T04:26:00Z,27.6250,-90.4410,15.2,94.0,20.1,-9999.0,'11111222,11111222,99999999' 
ADCP,ioos:station:wmo:42890:1,2010-04-06T04:46:00Z,27.6250,-90.4410,15.2,95.0,22.5,-9999.0,'11111222,11111222,99999999' 
ADCP,ioos:station:wmo:42890:1,2010-04-06T05:06:00Z,27.6250,-90.4410,15.2,96.0,20.4,-9999.0,'11111222,11111222,99999999' 
ADCP,ioos:station:wmo:42890:1,2010-04-06T05:26:00Z,27.6250,-90.4410,15.2,98.0,17.3,-9999.0,'11111222,11111222,99999999' 
ADCP,ioos:station:wmo:42890:1,2010-04-06T05:46:00Z,27.6250,-90.4410,15.2,96.0,14.5,-9999.0,'11111222,11111222,99999999' 
ADCP,ioos:station:wmo:42890:1,2010-04-06T06:06:00Z,27.6250,-90.4410,15.2,80.0,10.7,-9999.0,'11111222,11111222,99999999' 
ADCP,ioos:station:wmo:42890:1,2010-04-06T06:26:00Z,27.6250,-90.4410,15.2,70.0,10.5,-9999.0,'11111222,11111222,99999999' 
ADCP,ioos:station:wmo:42890:1,2010-04-06T06:46:00Z,27.6250,-90.4410,15.2,64.0,10.2,-9999.0,'11111222,11111222,99999999' 
ADCP,ioos:station:wmo:42890:1,2010-04-06T07:06:00Z,27.6250,-90.4410,15.2,58.0,7.8,-9999.0,'11133222,11111222,99999999' 
ADCP,ioos:station:wmo:42890:1,2010-04-06T07:26:00Z,27.6250,-90.4410,15.2,67.0,9.5,-9999.0,'11133222,11111222,99999999' 
ADCP,ioos:station:wmo:42890:1,2010-04-06T07:46:00Z,27.6250,-90.4410,15.2,100.0,14.0,-9999.0,'11111222,11111222,99999999' 
ADCP,ioos:station:wmo:42890:1,2010-04-06T08:06:00Z,27.6250,-90.4410,15.2,116.0,16.0,-9999.0,'11111222,11111222,99999999' 
ADCP,ioos:station:wmo:42890:1,2010-04-06T08:26:00Z,27.6250,-90.4410,15.2,118.0,16.8,-9999.0,'11111222,11111222,99999999' 
ADCP,ioos:station:wmo:42890:1,2010-04-06T08:46:00Z,27.6250,-90.4410,15.2,128.0,18.0,-9999.0,'11111222,11111222,99999999' 
ADCP,ioos:station:wmo:42890:1,2010-04-06T09:06:00Z,27.6250,-90.4410,15.2,124.0,16.6,-9999.0,'11111222,11111222,99999999' 
ADCP,ioos:station:wmo:42890:1,2010-04-06T09:26:00Z,27.6250,-90.4410,15.2,123.0,14.4,-9999.0,'11111222,11111222,99999999' 
ADCP,ioos:station:wmo:42890:1,2010-04-06T09:46:00Z,27.6250,-90.4410,15.2,127.0,16.3,-9999.0,'11111222,11111222,99999999' 
ADCP,ioos:station:wmo:42890:1,2010-04-06T10:06:00Z,27.6250,-90.4410,15.2,129.0,17.7,-9999.0,'11111222,11111222,99999999' 
ADCP,ioos:station:wmo:42890:1,2010-04-06T10:26:00Z,27.6250,-90.4410,15.2,148.0,13.5,-9999.0,'11111222,11111222,99999999' 
ADCP,ioos:station:wmo:42890:1,2010-04-06T10:46:00Z,27.6250,-90.4410,15.2,138.0,19.1,-9999.0,'11111222,11111222,99999999' 
ADCP,ioos:station:wmo:42890:1,2010-04-06T11:06:00Z,27.6250,-90.4410,15.2,131.0,14.8,-9999.0,'11111222,11111222,99999999' 
ADCP,ioos:station:wmo:42890:1,2010-04-06T11:26:00Z,27.6250,-90.4410,15.2,83.0,8.4,-9999.0,'11133222,11111222,99999999' 
ADCP,ioos:station:wmo:42890:1,2010-04-06T11:46:00Z,27.6250,-90.4410,15.2,58.0,12.3,-9999.0,'11111222,11111222,99999999' 
ADCP,ioos:station:wmo:42890:1,2010-04-06T12:06:00Z,27.6250,-90.4410,15.2,11.0,13.6,-9999.0,'11111222,11111222,99999999' 
ADCP,ioos:station:wmo:42890:1,2010-04-06T12:26:00Z,27.6250,-90.4410,15.2,7.0,14.1,-9999.0,'11111222,11111222,99999999' 
ADCP,ioos:station:wmo:42890:1,2010-04-06T12:46:00Z,27.6250,-90.4410,15.2,24.0,12.9,-9999.0,'11111222,11111222,99999999' 
ADCP,ioos:station:wmo:42890:1,2010-04-06T13:06:00Z,27.6250,-90.4410,15.2,48.0,12.9,-9999.0,'11111222,11111222,99999999' 
ADCP,ioos:station:wmo:42890:1,2010-04-06T13:26:00Z,27.6250,-90.4410,15.2,59.0,9.8,-9999.0,'11133222,11111222,99999999' 
ADCP,ioos:station:wmo:42890:1,2010-04-06T13:46:00Z,27.6250,-90.4410,15.2,38.0,8.8,-9999.0,'11133222,11111222,99999999' 
ADCP,ioos:station:wmo:42890:1,2010-04-06T14:06:00Z,27.6250,-90.4410,15.2,43.0,8.8,-9999.0,'11133222,11111222,99999999' 
ADCP,ioos:station:wmo:42890:1,2010-04-06T14:26:00Z,27.6250,-90.4410,15.2,27.0,8.9,-9999.0,'11133222,11111222,99999999' 
ADCP,ioos:station:wmo:42890:1,2010-04-06T14:46:00Z,27.6250,-90.4410,15.2,22.0,10.3,-9999.0,'11111222,11111222,99999999' 
ADCP,ioos:station:wmo:42890:1,2010-04-06T15:06:00Z,27.6250,-90.4410,15.2,43.0,12.2,-9999.0,'11111222,11111222,99999999' 
ADCP,ioos:station:wmo:42890:1,2010-04-06T15:26:00Z,27.6250,-90.4410,15.2,52.0,15.8,-9999.0,'11111222,11111222,99999999' 
ADCP,ioos:station:wmo:42890:1,2010-04-06T15:46:00Z,27.6250,-90.4410,15.2,64.0,13.3,-9999.0,'11111222,11111222,99999999' 
ADCP,ioos:station:wmo:42890:1,2010-04-06T16:06:00Z,27.6250,-90.4410,15.2,74.0,13.6,-9999.0,'11111222,11111222,99999999' 
ADCP,ioos:station:wmo:42890:1,2010-04-06T16:26:00Z,27.6250,-90.4410,15.2,74.0,11.8,-9999.0,'11111222,11111222,99999999' 
ADCP,ioos:station:wmo:42890:1,2010-04-06T16:46:00Z,27.6250,-90.4410,15.2,66.0,14.8,-9999.0,'11111222,11111222,99999999' 
ADCP,ioos:station:wmo:42890:1,2010-04-06T17:06:00Z,27.6250,-90.4410,15.2,85.0,10.5,-9999.0,'11111222,11111222,99999999' 
ADCP,ioos:station:wmo:42890:1,2010-04-06T17:26:00Z,27.6250,-90.4410,15.2,66.0,13.2,-9999.0,'11111222,11111222,99999999' 
ADCP,ioos:station:wmo:42890:1,2010-04-06T17:46:00Z,27.6250,-90.4410,15.2,74.0,12.3,-9999.0,'11111222,11111222,99999999' 
ADCP,ioos:station:wmo:42890:1,2010-04-06T18:06:00Z,27.6250,-90.4410,15.2,88.0,18.5,-9999.0,'11111222,11111222,99999999' 
ADCP,ioos:station:wmo:42890:1,2010-04-06T18:26:00Z,27.6250,-90.4410,15.2,94.0,19.9,-9999.0,'11111222,11111222,99999999' 
ADCP,ioos:station:wmo:42890:1,2010-04-06T18:46:00Z,27.6250,-90.4410,15.2,96.0,22.4,-9999.0,'11111222,11111222,99999999' 
ADCP,ioos:station:wmo:42890:1,2010-04-06T19:06:00Z,27.6250,-90.4410,15.2,94.0,24.3,-9999.0,'11111222,11111222,99999999' 
ADCP,ioos:station:wmo:42890:1,2010-04-06T19:26:00Z,27.6250,-90.4410,15.2,93.0,20.7,-9999.0,'11111222,11111222,99999999' 
ADCP,ioos:station:wmo:42890:1,2010-04-06T19:46:00Z,27.6250,-90.4410,15.2,106.0,15.2,-9999.0,'11111222,11111222,99999999' 
ADCP,ioos:station:wmo:42890:1,2010-04-06T20:06:00Z,27.6250,-90.4410,15.2,105.0,13.3,-9999.0,'11111222,11111222,99999999' 
ADCP,ioos:station:wmo:42890:1,2010-04-06T20:26:00Z,27.6250,-90.4410,15.2,102.0,13.3,-9999.0,'11111222,11111222,99999999' 
ADCP,ioos:station:wmo:42890:1,2010-04-06T20:46:00Z,27.6250,-90.4410,15.2,104.0,12.9,-9999.0,'11111222,11111222,99999999' 
ADCP,ioos:station:wmo:42890:1,2010-04-06T21:06:00Z,27.6250,-90.4410,15.2,98.0,13.0,-9999.0,'11111222,11111222,99999999' 
ADCP,ioos:station:wmo:42890:1,2010-04-06T21:26:00Z,27.6250,-90.4410,15.2,101.0,15.8,-9999.0,'11111222,11111222,99999999' 
ADCP,ioos:station:wmo:42890:1,2010-04-06T21:46:00Z,27.6250,-90.4410,15.2,107.0,16.7,-9999.0,'11111222,11111222,99999999' 
ADCP,ioos:station:wmo:42890:1,2010-04-06T22:06:00Z,27.6250,-90.4410,15.2,115.0,17.8,-9999.0,'11111222,11111222,99999999' 
ADCP,ioos:station:wmo:42890:1,2010-04-06T22:26:00Z,27.6250,-90.4410,15.2,113.0,18.8,-9999.0,'11111222,11111222,99999999' 
ADCP,ioos:station:wmo:42890:1,2010-04-06T22:46:00Z,27.6250,-90.4410,15.2,118.0,17.5,-9999.0,'11111222,11111222,99999999' 
ADCP,ioos:station:wmo:42890:1,2010-04-06T23:06:00Z,27.6250,-90.4410,15.2,121.0,17.7,-9999.0,'11111222,11111222,99999999' 
ADCP,ioos:station:wmo:42890:1,2010-04-06T23:26:00Z,27.6250,-90.4410,15.2,120.0,16.5,-9999.0,'11111222,11111222,99999999' 
ADCP,ioos:station:wmo:42890:1,2010-04-06T23:46:00Z,27.6250,-90.4410,15.2,116.0,16.2,-9999.0,'11111222,11111222,99999999' 
ADCP,ioos:station:wmo:42890:1,2010-04-07T00:06:00Z,27.6250,-90.4410,15.2,115.0,16.6,-9999.0,'11111222,11111222,99999999' 
ADCP,ioos:station:wmo:42890:1,2010-04-07T00:26:00Z,27.6250,-90.4410,15.2,120.0,14.9,-9999.0,'11111222,11111222,99999999' 
ADCP,ioos:station:wmo:42890:1,2010-04-07T00:46:00Z,27.6250,-90.4410,15.2,126.0,15.3,-9999.0,'11111222,11111222,99999999' 
ADCP,ioos:station:wmo:42890:1,2010-04-07T01:06:00Z,27.6250,-90.4410,15.2,134.0,13.4,-9999.0,'11111222,11111222,99999999' 
ADCP,ioos:station:wmo:42890:1,2010-04-07T01:26:00Z,27.6250,-90.4410,15.2,144.0,11.3,-9999.0,'11111222,11111222,99999999' 
ADCP,ioos:station:wmo:42890:1,2010-04-07T01:46:00Z,27.6250,-90.4410,15.2,144.0,10.7,-9999.0,'11111222,11111222,99999999' 
ADCP,ioos:station:wmo:42890:1,2010-04-07T02:06:00Z,27.6250,-90.4410,15.2,135.0,12.0,-9999.0,'11111222,11111222,99999999' 
ADCP,ioos:station:wmo:42890:1,2010-04-07T02:26:00Z,27.6250,-90.4410,15.2,128.0,12.7,-9999.0,'11111222,11111222,99999999' 
ADCP,ioos:station:wmo:42890:1,2010-04-07T02:46:00Z,27.6250,-90.4410,15.2,119.0,14.2,-9999.0,'11111222,11111222,99999999' 
ADCP,ioos:station:wmo:42890:1,2010-04-07T03:06:00Z,27.6250,-90.4410,15.2,116.0,13.3,-9999.0,'11111222,11111222,99999999' 
ADCP,ioos:station:wmo:42890:1,2010-04-07T03:26:00Z,27.6250,-90.4410,15.2,116.0,12.4,-9999.0,'11111222,11111222,99999999' 
ADCP,ioos:station:wmo:42890:1,2010-04-07T03:46:00Z,27.6250,-90.4410,15.2,101.0,8.6,-9999.0,'11133222,11111222,99999999' 
ADCP,ioos:station:wmo:42890:1,2010-04-07T04:06:00Z,27.6250,-90.4410,15.2,91.0,7.7,-9999.0,'11133222,11111222,99999999' 
ADCP,ioos:station:wmo:42890:1,2010-04-07T04:26:00Z,27.6250,-90.4410,15.2,64.0,5.1,-9999.0,'11133222,11111222,99999999' 
ADCP,ioos:station:wmo:42890:1,2010-04-07T04:46:00Z,27.6250,-90.4410,15.2,15.0,7.5,-9999.0,'11133222,11111222,99999999' 
ADCP,ioos:station:wmo:42890:1,2010-04-07T05:06:00Z,27.6250,-90.4410,15.2,31.0,7.4,-9999.0,'11133222,11111222,99999999' 
ADCP,ioos:station:wmo:42890:1,2010-04-07T05:26:00Z,27.6250,-90.4410,15.2,70.0,8.1,-9999.0,'11133222,11111222,99999999' 
ADCP,ioos:station:wmo:42890:1,2010-04-07T05:46:00Z,27.6250,-90.4410,15.2,92.0,7.6,-9999.0,'11133222,11111222,99999999' 
ADCP,ioos:station:wmo:42890:1,2010-04-07T06:06:00Z,27.6250,-90.4410,15.2,114.0,4.6,-9999.0,'11133222,11111222,99999999' 
ADCP,ioos:station:wmo:42890:1,2010-04-07T06:26:00Z,27.6250,-90.4410,15.2,204.0,3.5,-9999.0,'11133222,11111222,99999999' 
ADCP,ioos:station:wmo:42890:1,2010-04-07T06:46:00Z,27.6250,-90.4410,15.2,148.0,4.7,-9999.0,'11133222,11111222,99999999' 